Time,TemperatureF,DewpointF,PressureIn,WindDirection,WindDirectionDegrees,WindSpeedMPH,WindSpeedGustMPH,Humidity,HourlyPrecipIn,Conditions,Clouds,dailyrainin,SoftwareType,DateUTC
2013-01-01 00:00:00,71.4,60.0,30.24,ESE,112,10.3,10.3,67,0.00,,,0.00,Rainwise IP-100,2013-01-01 05:00:00,
2013-01-01 00:02:00,71.4,60.0,30.24,SSE,157,9.1,11.4,67,0.00,,,0.00,Rainwise IP-100,2013-01-01 05:02:00,
2013-01-01 00:03:00,71.4,60.0,30.24,ESE,112,6.5,12.8,67,0.00,,,0.00,Rainwise IP-100,2013-01-01 05:03:00,
2013-01-01 00:09:00,71.4,59.5,30.24,SSE,157,11.9,11.9,66,0.00,,,0.00,Rainwise IP-100,2013-01-01 05:09:00,
2013-01-01 00:14:00,71.5,59.0,30.25,SSE,157,9.1,13.5,64,0.00,,,0.00,Rainwise IP-100,2013-01-01 05:14:00,
2013-01-01 00:19:00,71.6,58.0,30.24,ESE,112,7.7,11.9,63,0.00,,,0.00,Rainwise IP-100,2013-01-01 05:19:00,
2013-01-01 00:24:00,71.6,59.0,30.24,ENE,67,3.3,11.2,64,0.00,,,0.00,Rainwise IP-100,2013-01-01 05:24:00,
2013-01-01 00:29:00,71.6,59.0,30.24,ESE,112,4.7,15.9,64,0.00,,,0.00,Rainwise IP-100,2013-01-01 05:29:00,
2013-01-01 00:34:00,71.6,59.5,30.24,SSE,157,3.5,10.3,65,0.00,,,0.00,Rainwise IP-100,2013-01-01 05:34:00,
2013-01-01 00:40:00,71.6,59.5,30.24,ESE,112,7.7,8.4,65,0.00,,,0.00,Rainwise IP-100,2013-01-01 05:40:00,
2013-01-01 00:45:00,71.5,59.5,30.24,SE,135,9.6,10.5,66,0.00,,,0.00,Rainwise IP-100,2013-01-01 05:45:00,
2013-01-01 00:50:00,71.5,59.5,30.24,ESE,112,1.9,10.7,66,0.00,,,0.00,Rainwise IP-100,2013-01-01 05:50:00,
2013-01-01 00:55:00,71.6,59.5,30.24,East,90,3.3,7.5,66,0.00,,,0.00,Rainwise IP-100,2013-01-01 05:55:00,
2013-01-01 01:00:00,71.6,59.5,30.23,SSE,157,3.7,6.5,66,0.00,,,0.00,Rainwise IP-100,2013-01-01 06:00:00,
2013-01-01 01:05:00,71.6,59.5,30.23,East,90,2.1,10.7,65,0.00,,,0.00,Rainwise IP-100,2013-01-01 06:05:00,
2013-01-01 01:11:00,71.6,59.5,30.23,SSE,157,6.1,11.0,65,0.00,,,0.00,Rainwise IP-100,2013-01-01 06:11:00,
2013-01-01 01:16:00,71.6,59.5,30.22,SE,135,6.3,10.0,66,0.00,,,0.00,Rainwise IP-100,2013-01-01 06:16:00,
2013-01-01 01:21:00,71.7,59.5,30.23,SSW,202,4.0,12.4,66,0.00,,,0.00,Rainwise IP-100,2013-01-01 06:21:00,
2013-01-01 01:26:00,71.7,60.0,30.22,ENE,67,7.0,13.5,67,0.00,,,0.00,Rainwise IP-100,2013-01-01 06:26:00,
2013-01-01 01:31:00,71.7,60.0,30.22,ESE,112,4.9,9.1,67,0.00,,,0.00,Rainwise IP-100,2013-01-01 06:31:00,
2013-01-01 01:36:00,71.8,59.5,30.22,SE,135,5.8,12.1,66,0.00,,,0.00,Rainwise IP-100,2013-01-01 06:36:00,
2013-01-01 01:42:00,71.9,59.5,30.22,SSE,157,11.9,11.9,65,0.00,,,0.00,Rainwise IP-100,2013-01-01 06:42:00,
2013-01-01 01:47:00,71.9,59.5,30.22,SSE,157,9.6,14.9,65,0.00,,,0.00,Rainwise IP-100,2013-01-01 06:47:00,
2013-01-01 01:52:00,71.8,59.5,30.22,SSE,157,9.3,13.5,65,0.00,,,0.00,Rainwise IP-100,2013-01-01 06:52:00,
2013-01-01 01:57:00,71.8,59.0,30.22,SSE,157,1.9,15.6,64,0.00,,,0.00,Rainwise IP-100,2013-01-01 06:57:00,
2013-01-01 02:02:00,71.8,57.5,30.22,SE,135,6.5,13.5,62,0.00,,,0.00,Rainwise IP-100,2013-01-01 07:02:00,
2013-01-01 02:07:00,71.7,57.5,30.22,SSE,157,5.4,13.5,62,0.00,,,0.00,Rainwise IP-100,2013-01-01 07:07:00,
2013-01-01 02:13:00,71.6,57.5,30.22,SSE,157,12.1,12.1,62,0.00,,,0.00,Rainwise IP-100,2013-01-01 07:13:00,
2013-01-01 02:18:00,71.5,57.5,30.22,SE,135,7.2,15.2,62,0.00,,,0.00,Rainwise IP-100,2013-01-01 07:18:00,
2013-01-01 02:23:00,71.6,57.5,30.22,ESE,112,1.2,10.3,61,0.00,,,0.00,Rainwise IP-100,2013-01-01 07:23:00,
2013-01-01 02:28:00,71.6,57.5,30.22,SSE,157,2.3,7.9,61,0.00,,,0.00,Rainwise IP-100,2013-01-01 07:28:00,
2013-01-01 02:33:00,71.6,58.0,30.22,SE,135,10.0,14.5,63,0.00,,,0.00,Rainwise IP-100,2013-01-01 07:33:00,
2013-01-01 02:38:00,71.6,58.0,30.22,ESE,112,3.7,14.7,63,0.00,,,0.00,Rainwise IP-100,2013-01-01 07:38:00,
2013-01-01 02:44:00,71.6,58.0,30.22,ESE,112,5.6,14.0,63,0.00,,,0.00,Rainwise IP-100,2013-01-01 07:44:00,
2013-01-01 02:49:00,71.6,57.5,30.22,East,90,5.6,12.4,62,0.00,,,0.00,Rainwise IP-100,2013-01-01 07:49:00,
2013-01-01 02:54:00,71.6,57.5,30.22,ESE,112,4.2,13.1,61,0.00,,,0.00,Rainwise IP-100,2013-01-01 07:54:00,
2013-01-01 02:59:00,71.6,57.5,30.22,ESE,112,2.3,10.3,61,0.00,,,0.00,Rainwise IP-100,2013-01-01 07:59:00,
2013-01-01 03:04:00,71.6,58.0,30.22,ESE,112,0.0,7.5,63,0.00,,,0.00,Rainwise IP-100,2013-01-01 08:04:00,
2013-01-01 03:09:00,71.6,58.0,30.22,ESE,112,4.7,14.7,63,0.00,,,0.00,Rainwise IP-100,2013-01-01 08:09:00,
2013-01-01 03:15:00,71.6,57.5,30.22,ESE,112,4.9,9.8,61,0.00,,,0.00,Rainwise IP-100,2013-01-01 08:15:00,
2013-01-01 03:20:00,71.6,57.5,30.22,ESE,112,1.9,11.9,61,0.00,,,0.00,Rainwise IP-100,2013-01-01 08:20:00,
2013-01-01 03:25:00,71.6,57.5,30.21,East,90,5.4,8.6,61,0.00,,,0.00,Rainwise IP-100,2013-01-01 08:25:00,
2013-01-01 03:30:00,71.6,57.5,30.22,SSE,157,3.5,7.7,61,0.00,,,0.00,Rainwise IP-100,2013-01-01 08:30:00,
2013-01-01 03:35:00,71.6,57.5,30.22,ESE,112,5.4,9.1,62,0.00,,,0.00,Rainwise IP-100,2013-01-01 08:35:00,
2013-01-01 03:40:00,71.6,57.5,30.21,East,90,3.0,11.4,62,0.00,,,0.00,Rainwise IP-100,2013-01-01 08:40:00,
2013-01-01 03:46:00,71.6,57.5,30.21,ESE,112,7.0,11.0,62,0.00,,,0.00,Rainwise IP-100,2013-01-01 08:46:00,
2013-01-01 03:51:00,71.8,57.5,30.22,ESE,112,3.7,12.8,61,0.00,,,0.00,Rainwise IP-100,2013-01-01 08:51:00,
2013-01-01 03:56:00,71.8,57.5,30.22,SSE,157,1.2,8.6,61,0.00,,,0.00,Rainwise IP-100,2013-01-01 08:56:00,
2013-01-01 04:01:00,71.7,57.5,30.22,ESE,112,7.0,7.0,61,0.00,,,0.00,Rainwise IP-100,2013-01-01 09:01:00,
2013-01-01 04:07:00,71.7,57.5,30.22,ENE,67,1.4,5.4,62,0.00,,,0.00,Rainwise IP-100,2013-01-01 09:07:00,
2013-01-01 04:12:00,71.7,58.0,30.22,South,180,1.6,6.5,63,0.00,,,0.00,Rainwise IP-100,2013-01-01 09:12:00,
2013-01-01 04:17:00,71.7,59.0,30.22,ESE,112,12.8,12.8,64,0.00,,,0.00,Rainwise IP-100,2013-01-01 09:17:00,
2013-01-01 04:22:00,71.8,58.0,30.21,ESE,112,4.0,14.0,63,0.00,,,0.00,Rainwise IP-100,2013-01-01 09:22:00,
2013-01-01 04:27:00,71.8,57.5,30.21,East,90,5.6,13.8,62,0.00,,,0.00,Rainwise IP-100,2013-01-01 09:27:00,
2013-01-01 04:33:00,71.7,58.0,30.21,SE,135,11.4,13.5,63,0.00,,,0.00,Rainwise IP-100,2013-01-01 09:33:00,
2013-01-01 04:38:00,71.6,58.0,30.21,SE,135,3.3,14.7,63,0.00,,,0.00,Rainwise IP-100,2013-01-01 09:38:00,
2013-01-01 04:43:00,71.6,57.5,30.21,ESE,112,11.4,12.8,62,0.00,,,0.00,Rainwise IP-100,2013-01-01 09:43:00,
2013-01-01 04:48:00,71.6,57.5,30.21,ESE,112,7.0,13.8,62,0.00,,,0.00,Rainwise IP-100,2013-01-01 09:48:00,
2013-01-01 04:53:00,71.6,57.5,30.20,ENE,67,7.0,11.4,61,0.00,,,0.00,Rainwise IP-100,2013-01-01 09:53:00,
2013-01-01 04:58:00,71.6,57.5,30.20,SE,135,4.0,8.9,62,0.00,,,0.00,Rainwise IP-100,2013-01-01 09:58:00,
2013-01-01 05:04:00,71.5,57.5,30.20,ESE,112,5.1,8.9,62,0.00,,,0.00,Rainwise IP-100,2013-01-01 10:04:00,
2013-01-01 05:09:00,71.5,57.5,30.20,ESE,112,7.2,13.5,62,0.00,,,0.00,Rainwise IP-100,2013-01-01 10:09:00,
2013-01-01 05:14:00,71.6,57.5,30.20,ESE,112,5.8,13.3,62,0.00,,,0.00,Rainwise IP-100,2013-01-01 10:14:00,
2013-01-01 05:19:00,71.6,58.0,30.20,SSE,157,6.5,15.6,63,0.00,,,0.00,Rainwise IP-100,2013-01-01 10:19:00,
2013-01-01 05:24:00,71.6,58.0,30.20,SE,135,7.2,14.2,63,0.00,,,0.00,Rainwise IP-100,2013-01-01 10:24:00,
2013-01-01 05:29:00,71.6,57.5,30.20,SE,135,6.5,12.6,62,0.00,,,0.00,Rainwise IP-100,2013-01-01 10:29:00,
2013-01-01 05:35:00,71.6,57.5,30.20,ESE,112,2.1,15.9,61,0.00,,,0.00,Rainwise IP-100,2013-01-01 10:35:00,
2013-01-01 05:40:00,71.5,57.5,30.20,SE,135,6.3,16.6,61,0.00,,,0.00,Rainwise IP-100,2013-01-01 10:40:00,
2013-01-01 05:45:00,71.5,57.5,30.20,SSE,157,3.7,16.1,61,0.00,,,0.00,Rainwise IP-100,2013-01-01 10:45:00,
2013-01-01 05:50:00,71.4,57.0,30.20,SSE,157,5.8,14.2,61,0.00,,,0.00,Rainwise IP-100,2013-01-01 10:50:00,
2013-01-01 05:55:00,71.2,57.0,30.19,East,90,3.5,13.5,61,0.00,,,0.00,Rainwise IP-100,2013-01-01 10:55:00,
2013-01-01 06:00:00,71.2,57.5,30.19,SE,135,4.7,17.3,62,0.00,,,0.00,Rainwise IP-100,2013-01-01 11:00:00,
2013-01-01 06:06:00,71.3,57.5,30.20,SSE,157,1.9,18.4,62,0.00,,,0.00,Rainwise IP-100,2013-01-01 11:06:00,
2013-01-01 06:11:00,71.4,57.0,30.20,East,90,3.7,17.0,61,0.00,,,0.00,Rainwise IP-100,2013-01-01 11:11:00,
2013-01-01 06:16:00,71.4,57.0,30.19,SE,135,2.1,15.6,61,0.00,,,0.00,Rainwise IP-100,2013-01-01 11:16:00,
2013-01-01 06:21:00,71.4,57.0,30.19,SE,135,7.2,17.7,61,0.00,,,0.00,Rainwise IP-100,2013-01-01 11:21:00,
2013-01-01 06:26:00,71.5,57.0,30.19,ESE,112,11.9,17.5,60,0.00,,,0.00,Rainwise IP-100,2013-01-01 11:26:00,
2013-01-01 06:31:00,71.5,57.0,30.20,SSE,157,8.4,18.0,60,0.00,,,0.00,Rainwise IP-100,2013-01-01 11:31:00,
2013-01-01 06:37:00,71.5,57.5,30.19,SE,135,5.6,18.0,61,0.00,,,0.00,Rainwise IP-100,2013-01-01 11:37:00,
2013-01-01 06:42:00,71.6,57.0,30.19,SSE,157,9.3,18.2,60,0.00,,,0.00,Rainwise IP-100,2013-01-01 11:42:00,
2013-01-01 06:47:00,71.5,57.0,30.19,SSW,202,6.1,18.4,60,0.00,,,0.00,Rainwise IP-100,2013-01-01 11:47:00,
2013-01-01 06:52:00,71.5,57.0,30.19,SE,135,7.0,14.9,60,0.00,,,0.00,Rainwise IP-100,2013-01-01 11:52:00,
2013-01-01 06:57:00,71.5,57.5,30.19,ESE,112,3.3,17.7,61,0.00,,,0.00,Rainwise IP-100,2013-01-01 11:57:00,
2013-01-01 07:02:00,71.5,57.5,30.19,SE,135,5.6,13.8,62,0.00,,,0.00,Rainwise IP-100,2013-01-01 12:02:00,
2013-01-01 07:08:00,71.4,57.5,30.18,SSE,157,11.9,12.1,62,0.00,,,0.00,Rainwise IP-100,2013-01-01 12:08:00,
2013-01-01 07:13:00,71.4,57.5,30.18,ESE,112,4.2,13.8,62,0.00,,,0.00,Rainwise IP-100,2013-01-01 12:13:00,
2013-01-01 07:18:00,71.4,57.5,30.19,ESE,112,11.9,13.3,62,0.00,,,0.00,Rainwise IP-100,2013-01-01 12:18:00,
2013-01-01 07:23:00,71.5,57.5,30.19,ESE,112,8.2,15.2,62,0.00,,,0.00,Rainwise IP-100,2013-01-01 12:23:00,
2013-01-01 07:28:00,71.7,57.5,30.18,ENE,67,4.0,15.6,62,0.00,,,0.00,Rainwise IP-100,2013-01-01 12:28:00,
2013-01-01 07:33:00,72.0,58.0,30.18,ENE,67,4.0,17.3,62,0.00,,,0.00,Rainwise IP-100,2013-01-01 12:33:00,
2013-01-01 07:39:00,72.1,58.0,30.19,East,90,10.3,14.7,62,0.00,,,0.00,Rainwise IP-100,2013-01-01 12:39:00,
2013-01-01 07:44:00,72.2,58.0,30.20,SE,135,4.4,14.0,61,0.00,,,0.00,Rainwise IP-100,2013-01-01 12:44:00,
2013-01-01 07:49:00,72.2,58.0,30.19,ESE,112,4.0,11.0,61,0.00,,,0.00,Rainwise IP-100,2013-01-01 12:49:00,
2013-01-01 07:54:00,72.3,59.0,30.19,SSE,157,9.8,16.1,62,0.00,,,0.00,Rainwise IP-100,2013-01-01 12:54:00,
2013-01-01 07:59:00,72.4,59.0,30.19,SE,135,8.6,12.4,63,0.00,,,0.00,Rainwise IP-100,2013-01-01 12:59:00,
2013-01-01 08:04:00,72.4,59.0,30.20,SSE,157,4.4,16.6,63,0.00,,,0.00,Rainwise IP-100,2013-01-01 13:04:00,
2013-01-01 08:10:00,72.5,60.0,30.20,SE,135,6.8,15.4,64,0.00,,,0.00,Rainwise IP-100,2013-01-01 13:10:00,
2013-01-01 08:15:00,72.4,60.0,30.20,SSE,157,11.0,17.3,65,0.00,,,0.00,Rainwise IP-100,2013-01-01 13:15:00,
2013-01-01 08:20:00,72.4,60.5,30.19,ENE,67,4.4,16.8,66,0.00,,,0.00,Rainwise IP-100,2013-01-01 13:20:00,
2013-01-01 08:25:00,72.5,60.5,30.20,SSE,157,7.9,20.1,66,0.00,,,0.00,Rainwise IP-100,2013-01-01 13:25:00,
2013-01-01 08:30:00,72.6,60.5,30.21,East,90,5.1,15.2,65,0.00,,,0.00,Rainwise IP-100,2013-01-01 13:30:00,
2013-01-01 08:35:00,72.7,60.5,30.21,SSE,157,3.3,11.9,65,0.00,,,0.00,Rainwise IP-100,2013-01-01 13:35:00,
2013-01-01 08:41:00,72.7,60.5,30.21,SSE,157,5.1,14.0,66,0.00,,,0.00,Rainwise IP-100,2013-01-01 13:41:00,
2013-01-01 08:46:00,72.6,60.5,30.21,SSE,157,6.3,12.6,66,0.00,,,0.00,Rainwise IP-100,2013-01-01 13:46:00,
2013-01-01 08:51:00,72.6,60.5,30.21,SSE,157,13.5,16.3,66,0.00,,,0.00,Rainwise IP-100,2013-01-01 13:51:00,
2013-01-01 08:56:00,72.7,60.5,30.21,ESE,112,5.8,18.7,66,0.00,,,0.00,Rainwise IP-100,2013-01-01 13:56:00,
2013-01-01 09:01:00,72.8,60.5,30.21,SSE,157,8.2,14.5,66,0.00,,,0.00,Rainwise IP-100,2013-01-01 14:01:00,
2013-01-01 09:06:00,72.8,60.5,30.21,ESE,112,11.7,15.2,66,0.00,,,0.00,Rainwise IP-100,2013-01-01 14:06:00,
2013-01-01 09:12:00,72.8,60.5,30.21,SSE,157,7.0,16.1,65,0.00,,,0.00,Rainwise IP-100,2013-01-01 14:12:00,
2013-01-01 09:17:00,73.1,60.0,30.21,ESE,112,6.5,15.2,64,0.00,,,0.00,Rainwise IP-100,2013-01-01 14:17:00,
2013-01-01 09:22:00,73.3,60.5,30.21,ESE,112,6.1,14.0,64,0.00,,,0.00,Rainwise IP-100,2013-01-01 14:22:00,
2013-01-01 09:27:00,73.3,60.0,30.21,ESE,112,5.8,13.5,63,0.00,,,0.00,Rainwise IP-100,2013-01-01 14:27:00,
2013-01-01 09:32:00,73.7,60.0,30.21,SE,135,10.7,10.7,62,0.00,,,0.00,Rainwise IP-100,2013-01-01 14:32:00,
2013-01-01 09:37:00,74.1,60.0,30.22,SSW,202,5.1,12.8,61,0.00,,,0.00,Rainwise IP-100,2013-01-01 14:37:00,
2013-01-01 09:43:00,73.9,59.5,30.21,South,180,4.0,13.1,60,0.00,,,0.00,Rainwise IP-100,2013-01-01 14:43:00,
2013-01-01 09:48:00,73.6,59.5,30.21,SSE,157,6.3,10.7,61,0.00,,,0.00,Rainwise IP-100,2013-01-01 14:48:00,
2013-01-01 09:53:00,73.6,60.0,30.22,SSW,202,7.0,11.7,62,0.00,,,0.00,Rainwise IP-100,2013-01-01 14:53:00,
2013-01-01 09:58:00,74.0,60.5,30.21,SE,135,8.6,14.2,62,0.00,,,0.00,Rainwise IP-100,2013-01-01 14:58:00,
2013-01-01 10:03:00,74.1,60.0,30.21,SE,135,4.4,17.5,61,0.00,,,0.00,Rainwise IP-100,2013-01-01 15:03:00,
2013-01-01 10:08:00,73.9,60.5,30.21,SE,135,7.7,9.1,62,0.00,,,0.00,Rainwise IP-100,2013-01-01 15:08:00,
2013-01-01 10:14:00,73.8,60.5,30.21,SSE,157,10.0,14.5,63,0.00,,,0.00,Rainwise IP-100,2013-01-01 15:14:00,
2013-01-01 10:19:00,73.8,60.5,30.21,SE,135,8.4,14.7,63,0.00,,,0.00,Rainwise IP-100,2013-01-01 15:19:00,
2013-01-01 10:24:00,74.1,60.5,30.21,SSE,157,11.0,14.2,62,0.00,,,0.00,Rainwise IP-100,2013-01-01 15:24:00,
2013-01-01 10:29:00,74.5,61.0,30.21,SSW,202,2.6,14.2,62,0.00,,,0.00,Rainwise IP-100,2013-01-01 15:29:00,
2013-01-01 10:34:00,74.5,60.5,30.21,ESE,112,11.4,17.7,61,0.00,,,0.00,Rainwise IP-100,2013-01-01 15:34:00,
2013-01-01 10:39:00,74.2,60.5,30.21,ESE,112,7.5,16.1,62,0.00,,,0.00,Rainwise IP-100,2013-01-01 15:39:00,
2013-01-01 10:45:00,74.4,61.5,30.21,SSE,157,5.8,10.0,64,0.00,,,0.00,Rainwise IP-100,2013-01-01 15:45:00,
2013-01-01 10:50:00,74.4,62.0,30.20,SSE,157,8.2,13.3,65,0.00,,,0.00,Rainwise IP-100,2013-01-01 15:50:00,
2013-01-01 10:55:00,74.6,62.5,30.20,SSW,202,3.0,14.2,65,0.00,,,0.00,Rainwise IP-100,2013-01-01 15:55:00,
2013-01-01 11:00:00,75.0,62.0,30.20,ESE,112,8.2,14.0,64,0.00,,,0.00,Rainwise IP-100,2013-01-01 16:00:00,
2013-01-01 11:05:00,74.8,62.0,30.20,SSE,157,3.7,17.5,64,0.00,,,0.00,Rainwise IP-100,2013-01-01 16:05:00,
2013-01-01 11:10:00,74.6,62.0,30.19,ESE,112,11.2,17.5,64,0.00,,,0.00,Rainwise IP-100,2013-01-01 16:10:00,
2013-01-01 11:16:00,74.7,62.0,30.18,SSW,202,7.0,14.9,64,0.00,,,0.00,Rainwise IP-100,2013-01-01 16:16:00,
2013-01-01 11:21:00,74.9,61.5,30.19,SE,135,6.8,17.7,63,0.00,,,0.00,Rainwise IP-100,2013-01-01 16:21:00,
2013-01-01 11:26:00,75.2,61.0,30.19,SSE,157,7.0,17.3,61,0.00,,,0.00,Rainwise IP-100,2013-01-01 16:26:00,
2013-01-01 11:31:00,75.4,60.5,30.18,SW,225,9.3,14.2,60,0.00,,,0.00,Rainwise IP-100,2013-01-01 16:31:00,
2013-01-01 11:36:00,75.3,60.5,30.18,SE,135,7.0,18.9,60,0.00,,,0.00,Rainwise IP-100,2013-01-01 16:36:00,
2013-01-01 11:41:00,75.5,60.5,30.18,SSE,157,8.2,14.5,60,0.00,,,0.00,Rainwise IP-100,2013-01-01 16:41:00,
2013-01-01 11:47:00,75.9,61.0,30.18,South,180,7.9,13.5,60,0.00,,,0.00,Rainwise IP-100,2013-01-01 16:47:00,
2013-01-01 11:52:00,75.9,60.5,30.18,SSW,202,8.9,14.2,59,0.00,,,0.00,Rainwise IP-100,2013-01-01 16:52:00,
2013-01-01 11:57:00,75.7,60.5,30.18,SSE,157,8.4,14.2,59,0.00,,,0.00,Rainwise IP-100,2013-01-01 16:57:00,
2013-01-01 12:02:00,75.7,60.5,30.18,ESE,112,6.8,14.0,59,0.00,,,0.00,Rainwise IP-100,2013-01-01 17:02:00,
2013-01-01 12:07:00,75.5,60.5,30.17,SSE,157,5.6,15.6,60,0.00,,,0.00,Rainwise IP-100,2013-01-01 17:07:00,
2013-01-01 12:12:00,75.5,61.0,30.17,SSE,157,5.8,12.6,61,0.00,,,0.00,Rainwise IP-100,2013-01-01 17:12:00,
2013-01-01 12:18:00,75.5,60.5,30.16,ESE,112,1.4,16.1,60,0.00,,,0.00,Rainwise IP-100,2013-01-01 17:18:00,
2013-01-01 12:23:00,75.6,60.5,30.16,SSE,157,6.3,14.2,60,0.00,,,0.00,Rainwise IP-100,2013-01-01 17:23:00,
2013-01-01 12:28:00,75.6,60.5,30.16,SSE,157,4.9,12.6,60,0.00,,,0.00,Rainwise IP-100,2013-01-01 17:28:00,
2013-01-01 12:33:00,75.7,60.5,30.15,South,180,10.0,15.9,60,0.00,,,0.00,Rainwise IP-100,2013-01-01 17:33:00,
2013-01-01 12:38:00,75.9,61.0,30.15,SSE,157,8.4,14.2,60,0.00,,,0.00,Rainwise IP-100,2013-01-01 17:38:00,
2013-01-01 12:43:00,76.0,61.5,30.15,South,180,2.8,15.9,61,0.00,,,0.00,Rainwise IP-100,2013-01-01 17:43:00,
2013-01-01 12:49:00,76.3,61.5,30.15,ESE,112,7.2,12.6,60,0.00,,,0.00,Rainwise IP-100,2013-01-01 17:49:00,
2013-01-01 12:54:00,76.0,61.0,30.14,SSW,202,5.4,14.0,60,0.00,,,0.00,Rainwise IP-100,2013-01-01 17:54:00,
2013-01-01 12:59:00,75.8,61.5,30.14,SSW,202,6.8,16.3,61,0.00,,,0.00,Rainwise IP-100,2013-01-01 17:59:00,
2013-01-01 13:04:00,76.1,61.0,30.13,SE,135,3.5,17.0,60,0.00,,,0.00,Rainwise IP-100,2013-01-01 18:04:00,
2013-01-01 13:09:00,76.0,61.0,30.14,SSW,202,3.5,14.5,60,0.00,,,0.00,Rainwise IP-100,2013-01-01 18:09:00,
2013-01-01 13:14:00,76.0,61.0,30.13,SSW,202,8.9,16.1,60,0.00,,,0.00,Rainwise IP-100,2013-01-01 18:14:00,
2013-01-01 13:20:00,75.7,60.5,30.13,SE,135,7.5,16.8,60,0.00,,,0.00,Rainwise IP-100,2013-01-01 18:20:00,
2013-01-01 13:25:00,75.7,60.5,30.12,SSE,157,7.9,15.9,60,0.00,,,0.00,Rainwise IP-100,2013-01-01 18:25:00,
2013-01-01 13:30:00,76.0,61.0,30.12,SSE,157,7.9,15.6,60,0.00,,,0.00,Rainwise IP-100,2013-01-01 18:30:00,
2013-01-01 13:35:00,75.8,61.0,30.12,South,180,7.5,14.5,60,0.00,,,0.00,Rainwise IP-100,2013-01-01 18:35:00,
2013-01-01 13:40:00,75.6,61.0,30.12,SE,135,7.2,16.8,61,0.00,,,0.00,Rainwise IP-100,2013-01-01 18:40:00,
2013-01-01 13:45:00,76.1,61.5,30.12,SSW,202,14.5,16.8,61,0.00,,,0.00,Rainwise IP-100,2013-01-01 18:45:00,
2013-01-01 13:51:00,76.0,61.5,30.12,SSE,157,6.3,14.7,61,0.00,,,0.00,Rainwise IP-100,2013-01-01 18:51:00,
2013-01-01 13:56:00,76.1,61.0,30.12,SSE,157,8.9,15.9,60,0.00,,,0.00,Rainwise IP-100,2013-01-01 18:56:00,
2013-01-01 14:01:00,76.3,61.5,30.12,SSE,157,10.3,14.7,60,0.00,,,0.00,Rainwise IP-100,2013-01-01 19:01:00,
2013-01-01 14:06:00,76.0,60.5,30.11,SSE,157,3.0,11.9,59,0.00,,,0.00,Rainwise IP-100,2013-01-01 19:06:00,
2013-01-01 14:11:00,75.7,60.5,30.11,SSW,202,6.8,14.7,60,0.00,,,0.00,Rainwise IP-100,2013-01-01 19:11:00,
2013-01-01 14:16:00,75.6,61.0,30.11,South,180,11.9,11.9,61,0.00,,,0.00,Rainwise IP-100,2013-01-01 19:16:00,
2013-01-01 14:22:00,75.6,61.5,30.12,SSW,202,10.0,14.7,62,0.00,,,0.00,Rainwise IP-100,2013-01-01 19:22:00,
2013-01-01 14:27:00,75.4,62.0,30.11,South,180,7.9,15.4,63,0.00,,,0.00,Rainwise IP-100,2013-01-01 19:27:00,
2013-01-01 14:32:00,75.4,62.0,30.11,SSW,202,7.2,16.6,63,0.00,,,0.00,Rainwise IP-100,2013-01-01 19:32:00,
2013-01-01 14:37:00,75.4,61.5,30.11,SSW,202,4.4,13.5,62,0.00,,,0.00,Rainwise IP-100,2013-01-01 19:37:00,
2013-01-01 14:42:00,75.4,61.5,30.11,ESE,112,7.0,14.9,62,0.00,,,0.00,Rainwise IP-100,2013-01-01 19:42:00,
2013-01-01 14:47:00,75.2,61.5,30.11,SSW,202,8.2,11.7,63,0.00,,,0.00,Rainwise IP-100,2013-01-01 19:47:00,
2013-01-01 14:53:00,75.1,62.5,30.11,ESE,112,5.6,12.4,65,0.00,,,0.00,Rainwise IP-100,2013-01-01 19:53:00,
2013-01-01 14:58:00,75.1,62.5,30.11,SE,135,3.7,15.2,65,0.00,,,0.00,Rainwise IP-100,2013-01-01 19:58:00,
2013-01-01 15:03:00,75.0,63.0,30.11,SSW,202,7.5,12.6,66,0.00,,,0.00,Rainwise IP-100,2013-01-01 20:03:00,
2013-01-01 15:08:00,74.9,63.0,30.11,SSW,202,4.9,10.5,66,0.00,,,0.00,Rainwise IP-100,2013-01-01 20:08:00,
2013-01-01 15:13:00,74.9,63.0,30.11,SE,135,5.6,11.4,66,0.00,,,0.00,Rainwise IP-100,2013-01-01 20:13:00,
2013-01-01 15:18:00,75.0,62.5,30.11,South,180,4.7,12.1,65,0.00,,,0.00,Rainwise IP-100,2013-01-01 20:18:00,
2013-01-01 15:24:00,75.2,62.5,30.11,SSE,157,5.1,13.5,65,0.00,,,0.00,Rainwise IP-100,2013-01-01 20:24:00,
2013-01-01 15:29:00,75.2,63.0,30.11,SSE,157,2.8,12.1,66,0.00,,,0.00,Rainwise IP-100,2013-01-01 20:29:00,
2013-01-01 15:34:00,75.0,63.0,30.11,SSE,157,7.5,10.0,66,0.00,,,0.00,Rainwise IP-100,2013-01-01 20:34:00,
2013-01-01 15:39:00,75.1,63.0,30.11,SSE,157,8.2,12.1,66,0.00,,,0.00,Rainwise IP-100,2013-01-01 20:39:00,
2013-01-01 15:44:00,75.4,64.0,30.11,South,180,7.9,12.4,67,0.00,,,0.00,Rainwise IP-100,2013-01-01 20:44:00,
2013-01-01 15:49:00,75.3,64.0,30.11,South,180,1.6,9.8,67,0.00,,,0.00,Rainwise IP-100,2013-01-01 20:49:00,
2013-01-01 15:55:00,75.1,63.5,30.11,ESE,112,7.7,10.5,67,0.00,,,0.00,Rainwise IP-100,2013-01-01 20:55:00,
2013-01-01 16:00:00,75.1,63.5,30.11,SSE,157,8.9,11.7,67,0.00,,,0.00,Rainwise IP-100,2013-01-01 21:00:00,
2013-01-01 16:05:00,75.2,64.0,30.11,ESE,112,6.8,14.9,68,0.00,,,0.00,Rainwise IP-100,2013-01-01 21:05:00,
2013-01-01 16:10:00,75.2,63.5,30.10,SSE,157,5.1,12.8,67,0.00,,,0.00,Rainwise IP-100,2013-01-01 21:10:00,
2013-01-01 16:15:00,75.0,63.0,30.10,SE,135,5.1,12.4,66,0.00,,,0.00,Rainwise IP-100,2013-01-01 21:15:00,
2013-01-01 16:20:00,74.8,62.5,30.10,ESE,112,3.5,12.1,66,0.00,,,0.00,Rainwise IP-100,2013-01-01 21:20:00,
2013-01-01 16:26:00,74.5,63.0,30.10,SSE,157,5.6,13.3,67,0.00,,,0.00,Rainwise IP-100,2013-01-01 21:26:00,
2013-01-01 16:31:00,74.3,63.0,30.10,ESE,112,4.0,10.5,67,0.00,,,0.00,Rainwise IP-100,2013-01-01 21:31:00,
2013-01-01 16:36:00,74.1,62.5,30.10,SSW,202,1.2,8.2,67,0.00,,,0.00,Rainwise IP-100,2013-01-01 21:36:00,
2013-01-01 16:41:00,74.1,62.5,30.10,ESE,112,4.0,10.0,67,0.00,,,0.00,Rainwise IP-100,2013-01-01 21:41:00,
2013-01-01 16:46:00,74.1,63.0,30.10,SSW,202,2.6,8.6,68,0.00,,,0.00,Rainwise IP-100,2013-01-01 21:46:00,
2013-01-01 16:51:00,74.0,63.0,30.10,SSE,157,5.6,10.3,68,0.00,,,0.00,Rainwise IP-100,2013-01-01 21:51:00,
2013-01-01 16:57:00,74.0,63.0,30.10,SSE,157,3.7,10.7,68,0.00,,,0.00,Rainwise IP-100,2013-01-01 21:57:00,
2013-01-01 17:02:00,74.0,63.0,30.10,SSE,157,5.1,8.9,68,0.00,,,0.00,Rainwise IP-100,2013-01-01 22:02:00,
2013-01-01 17:07:00,74.0,63.0,30.10,South,180,4.4,9.6,68,0.00,,,0.00,Rainwise IP-100,2013-01-01 22:07:00,
2013-01-01 17:12:00,73.9,63.5,30.11,South,180,3.0,7.2,69,0.00,,,0.00,Rainwise IP-100,2013-01-01 22:12:00,
2013-01-01 17:17:00,73.8,63.0,30.11,SSE,157,3.5,7.0,69,0.00,,,0.00,Rainwise IP-100,2013-01-01 22:17:00,
2013-01-01 17:22:00,73.7,63.5,30.11,South,180,2.8,8.6,70,0.00,,,0.00,Rainwise IP-100,2013-01-01 22:22:00,
2013-01-01 17:28:00,73.7,63.0,30.10,South,180,5.1,7.7,69,0.00,,,0.00,Rainwise IP-100,2013-01-01 22:28:00,
2013-01-01 17:33:00,73.7,63.0,30.10,SSE,157,6.8,10.3,69,0.00,,,0.00,Rainwise IP-100,2013-01-01 22:33:00,
2013-01-01 17:38:00,73.7,63.0,30.10,SSW,202,6.8,9.8,69,0.00,,,0.00,Rainwise IP-100,2013-01-01 22:38:00,
2013-01-01 17:43:00,73.7,63.0,30.10,South,180,4.7,9.8,69,0.00,,,0.00,Rainwise IP-100,2013-01-01 22:43:00,
2013-01-01 17:48:00,73.6,63.0,30.10,South,180,2.1,6.8,69,0.00,,,0.00,Rainwise IP-100,2013-01-01 22:48:00,
2013-01-01 17:53:00,73.5,63.0,30.10,SSW,202,4.0,7.7,69,0.00,,,0.00,Rainwise IP-100,2013-01-01 22:53:00,
2013-01-01 17:59:00,73.5,63.0,30.10,South,180,6.5,7.7,69,0.00,,,0.00,Rainwise IP-100,2013-01-01 22:59:00,
2013-01-01 18:04:00,73.5,62.5,30.10,SSE,157,3.5,7.0,68,0.00,,,0.00,Rainwise IP-100,2013-01-01 23:04:00,
2013-01-01 18:09:00,73.5,62.5,30.11,South,180,5.6,5.6,68,0.00,,,0.00,Rainwise IP-100,2013-01-01 23:09:00,
2013-01-01 18:14:00,73.6,62.5,30.11,SSW,202,7.2,7.7,68,0.00,,,0.00,Rainwise IP-100,2013-01-01 23:14:00,
2013-01-01 18:19:00,73.6,62.5,30.11,SSW,202,2.1,7.5,68,0.00,,,0.00,Rainwise IP-100,2013-01-01 23:19:00,
2013-01-01 18:24:00,73.6,62.5,30.11,SSW,202,3.5,4.9,68,0.00,,,0.00,Rainwise IP-100,2013-01-01 23:24:00,
2013-01-01 18:30:00,73.5,62.5,30.11,South,180,4.2,5.4,68,0.00,,,0.00,Rainwise IP-100,2013-01-01 23:30:00,
2013-01-01 18:35:00,73.5,62.5,30.11,SSE,157,3.5,5.1,68,0.00,,,0.00,Rainwise IP-100,2013-01-01 23:35:00,
2013-01-01 18:40:00,73.4,62.5,30.11,SSW,202,3.7,4.4,69,0.00,,,0.00,Rainwise IP-100,2013-01-01 23:40:00,
2013-01-01 18:45:00,73.4,62.0,30.11,SSW,202,3.7,5.6,68,0.00,,,0.00,Rainwise IP-100,2013-01-01 23:45:00,
2013-01-01 18:50:00,73.4,62.0,30.11,SSW,202,4.0,5.1,68,0.00,,,0.00,Rainwise IP-100,2013-01-01 23:50:00,
2013-01-01 18:55:00,73.5,62.0,30.11,SSW,202,2.1,4.9,67,0.00,,,0.00,Rainwise IP-100,2013-01-01 23:55:00,
2013-01-01 19:01:00,73.4,62.0,30.11,SSW,202,2.8,3.7,67,0.00,,,0.00,Rainwise IP-100,2013-01-02 00:01:00,
2013-01-01 19:06:00,73.3,62.0,30.11,SSE,157,0.0,3.0,67,0.00,,,0.00,Rainwise IP-100,2013-01-02 00:06:00,
2013-01-01 19:11:00,73.1,61.5,30.11,SSE,157,1.2,2.3,67,0.00,,,0.00,Rainwise IP-100,2013-01-02 00:11:00,
2013-01-01 19:16:00,72.8,61.5,30.11,SSE,157,0.0,1.4,68,0.00,,,0.00,Rainwise IP-100,2013-01-02 00:16:00,
2013-01-01 19:21:00,72.3,61.5,30.11,SSE,157,0.0,0.0,69,0.00,,,0.00,Rainwise IP-100,2013-01-02 00:21:00,
2013-01-01 19:26:00,71.9,61.5,30.12,SSE,157,0.0,0.0,69,0.00,,,0.00,Rainwise IP-100,2013-01-02 00:26:00,
2013-01-01 19:32:00,71.6,61.5,30.12,SSE,157,0.0,0.0,70,0.00,,,0.00,Rainwise IP-100,2013-01-02 00:32:00,
2013-01-01 19:37:00,71.4,61.0,30.12,SSE,157,0.0,0.0,70,0.00,,,0.00,Rainwise IP-100,2013-01-02 00:37:00,
2013-01-01 19:42:00,71.4,61.0,30.12,SSE,157,0.0,0.0,70,0.00,,,0.00,Rainwise IP-100,2013-01-02 00:42:00,
2013-01-01 19:47:00,71.5,61.5,30.12,SSE,157,0.0,0.0,71,0.00,,,0.00,Rainwise IP-100,2013-01-02 00:47:00,
2013-01-01 19:52:00,71.5,61.5,30.12,SSE,157,0.0,0.0,71,0.00,,,0.00,Rainwise IP-100,2013-01-02 00:52:00,
2013-01-01 19:57:00,71.4,61.5,30.12,SSE,157,0.0,0.0,71,0.00,,,0.00,Rainwise IP-100,2013-01-02 00:57:00,
2013-01-01 20:03:00,71.2,61.5,30.12,SSE,157,0.0,0.0,71,0.00,,,0.00,Rainwise IP-100,2013-01-02 01:03:00,
2013-01-01 20:08:00,71.1,61.5,30.12,SSE,157,0.0,0.0,72,0.00,,,0.00,Rainwise IP-100,2013-01-02 01:08:00,
2013-01-01 20:13:00,71.1,61.5,30.13,SSE,157,0.0,0.0,73,0.00,,,0.00,Rainwise IP-100,2013-01-02 01:13:00,
2013-01-01 20:18:00,70.9,62.0,30.13,SSE,157,0.0,0.0,74,0.00,,,0.00,Rainwise IP-100,2013-01-02 01:18:00,
2013-01-01 20:23:00,70.6,62.0,30.12,SSE,157,0.0,0.0,75,0.00,,,0.00,Rainwise IP-100,2013-01-02 01:23:00,
2013-01-01 20:28:00,70.5,62.0,30.12,SSE,157,0.0,0.0,75,0.00,,,0.00,Rainwise IP-100,2013-01-02 01:28:00,
2013-01-01 20:34:00,70.1,62.0,30.12,SSE,157,0.0,0.0,75,0.00,,,0.00,Rainwise IP-100,2013-01-02 01:34:00,
2013-01-01 20:39:00,69.9,62.0,30.13,SSE,157,0.0,0.0,75,0.00,,,0.00,Rainwise IP-100,2013-01-02 01:39:00,
2013-01-01 20:44:00,69.9,62.0,30.13,SSE,157,0.0,0.0,76,0.00,,,0.00,Rainwise IP-100,2013-01-02 01:44:00,
2013-01-01 20:49:00,69.8,61.5,30.14,SSE,157,0.0,0.0,76,0.00,,,0.00,Rainwise IP-100,2013-01-02 01:49:00,
2013-01-01 20:54:00,69.6,61.5,30.14,SSE,157,0.0,0.0,76,0.00,,,0.00,Rainwise IP-100,2013-01-02 01:54:00,
2013-01-01 20:59:00,69.6,62.0,30.13,SSE,157,0.0,0.0,77,0.00,,,0.00,Rainwise IP-100,2013-01-02 01:59:00,
2013-01-01 21:05:00,69.5,62.0,30.13,SSE,157,0.0,0.0,77,0.00,,,0.00,Rainwise IP-100,2013-01-02 02:05:00,
2013-01-01 21:10:00,69.3,61.5,30.13,SSE,157,0.0,0.0,77,0.00,,,0.00,Rainwise IP-100,2013-01-02 02:10:00,
2013-01-01 21:15:00,69.5,63.0,30.13,SSE,157,0.0,0.0,79,0.00,,,0.00,Rainwise IP-100,2013-01-02 02:15:00,
2013-01-01 21:20:00,69.7,63.0,30.13,SSE,157,0.0,0.0,80,0.00,,,0.00,Rainwise IP-100,2013-01-02 02:20:00,
2013-01-01 21:25:00,69.4,63.0,30.14,SSE,157,0.0,0.0,80,0.00,,,0.00,Rainwise IP-100,2013-01-02 02:25:00,
2013-01-01 21:30:00,68.9,62.5,30.14,SSE,157,0.0,0.0,80,0.00,,,0.00,Rainwise IP-100,2013-01-02 02:30:00,
2013-01-01 21:36:00,68.5,62.5,30.14,SSE,157,0.0,0.0,81,0.00,,,0.00,Rainwise IP-100,2013-01-02 02:36:00,
2013-01-01 21:41:00,68.3,62.5,30.13,SSE,157,0.0,0.0,81,0.00,,,0.00,Rainwise IP-100,2013-01-02 02:41:00,
2013-01-01 21:46:00,68.7,62.5,30.14,SSE,157,0.0,0.0,82,0.00,,,0.00,Rainwise IP-100,2013-01-02 02:46:00,
2013-01-01 21:51:00,69.1,63.5,30.14,SSE,157,0.0,0.0,83,0.00,,,0.00,Rainwise IP-100,2013-01-02 02:51:00,
2013-01-01 21:56:00,68.9,63.5,30.13,SSE,157,0.0,0.0,83,0.00,,,0.00,Rainwise IP-100,2013-01-02 02:56:00,
2013-01-01 22:01:00,68.7,63.0,30.14,SSE,157,0.0,0.0,83,0.00,,,0.00,Rainwise IP-100,2013-01-02 03:01:00,
2013-01-01 22:07:00,68.7,63.0,30.13,SSE,157,0.0,0.0,83,0.00,,,0.00,Rainwise IP-100,2013-01-02 03:07:00,
2013-01-01 22:12:00,69.0,64.0,30.14,SSE,157,0.0,0.0,84,0.00,,,0.00,Rainwise IP-100,2013-01-02 03:12:00,
2013-01-01 22:17:00,69.0,64.0,30.14,SSE,157,0.0,0.0,85,0.00,,,0.00,Rainwise IP-100,2013-01-02 03:17:00,
2013-01-01 22:22:00,68.8,64.0,30.14,SSE,157,0.0,1.6,85,0.00,,,0.00,Rainwise IP-100,2013-01-02 03:22:00,
2013-01-01 22:27:00,68.5,64.0,30.14,SSE,157,0.0,0.0,85,0.00,,,0.00,Rainwise IP-100,2013-01-02 03:27:00,
2013-01-01 22:32:00,68.3,64.0,30.14,SSE,157,1.4,1.6,85,0.00,,,0.00,Rainwise IP-100,2013-01-02 03:32:00,
2013-01-01 22:38:00,68.4,64.0,30.14,SSE,157,0.0,1.9,85,0.00,,,0.00,Rainwise IP-100,2013-01-02 03:38:00,
2013-01-01 22:43:00,68.4,63.5,30.13,SSE,157,1.2,0.0,84,0.00,,,0.00,Rainwise IP-100,2013-01-02 03:43:00,
2013-01-01 22:48:00,68.4,63.5,30.13,SSE,157,1.2,1.4,84,0.00,,,0.00,Rainwise IP-100,2013-01-02 03:48:00,
2013-01-01 22:53:00,68.6,63.5,30.14,SSE,157,1.4,1.6,84,0.00,,,0.00,Rainwise IP-100,2013-01-02 03:53:00,
2013-01-01 22:58:00,68.5,63.5,30.13,South,180,0.0,2.1,84,0.00,,,0.00,Rainwise IP-100,2013-01-02 03:58:00,
2013-01-01 23:03:00,68.2,63.0,30.13,South,180,1.2,0.0,84,0.00,,,0.00,Rainwise IP-100,2013-01-02 04:03:00,
2013-01-01 23:09:00,68.3,63.5,30.12,South,180,0.0,1.4,84,0.00,,,0.00,Rainwise IP-100,2013-01-02 04:09:00,
2013-01-01 23:14:00,68.6,63.5,30.12,South,180,0.0,0.0,84,0.00,,,0.00,Rainwise IP-100,2013-01-02 04:14:00,
2013-01-01 23:19:00,68.7,64.0,30.13,South,180,1.2,1.4,85,0.00,,,0.00,Rainwise IP-100,2013-01-02 04:19:00,
2013-01-01 23:24:00,68.5,64.0,30.12,South,180,1.2,1.4,85,0.00,,,0.00,Rainwise IP-100,2013-01-02 04:24:00,
2013-01-01 23:29:00,68.1,63.5,30.12,SSE,157,1.4,2.3,85,0.00,,,0.00,Rainwise IP-100,2013-01-02 04:29:00,
2013-01-01 23:34:00,67.9,63.5,30.12,SSE,157,0.0,2.1,85,0.00,,,0.00,Rainwise IP-100,2013-01-02 04:34:00,
2013-01-01 23:40:00,68.0,63.5,30.12,SSE,157,0.0,0.0,85,0.00,,,0.00,Rainwise IP-100,2013-01-02 04:40:00,
2013-01-01 23:45:00,68.0,63.5,30.12,SSE,157,0.0,1.4,85,0.00,,,0.00,Rainwise IP-100,2013-01-02 04:45:00,
2013-01-01 23:50:00,67.8,63.5,30.11,SSE,157,0.0,0.0,86,0.00,,,0.00,Rainwise IP-100,2013-01-02 04:50:00,
2013-01-01 23:55:00,67.4,63.0,30.11,SSE,157,1.2,0.0,86,0.00,,,0.00,Rainwise IP-100,2013-01-02 04:55:00,